Weather History for KVIH - November, 2012

Change the Weather History Date:

Sunday, November 4, 2012

  Actual Average Record
Temperature  
Mean Temperature 40 °F 50 °F  
Max Temperature 51 °F 61 °F 80 °F (1978)
Min Temperature 29 °F 40 °F 11 °F (1991)
Degree Days  
Heating Degree Days 25 15  
Month to date heating degree days 74 58  
Since 1 July heating degree days 539 408  
Cooling Degree Days 0 0  
Month to date cooling degree days 0 0  
Year to date cooling degree days 1691 1243  
Moisture  
Dew Point 32 °F    
Average Humidity 76    
Maximum Humidity 100    
Minimum Humidity 38    
Precipitation  
Precipitation 0.00 in 0.13 in 1.91 in (1994)
Month to date precipitation 0.00 0.49  
Year to date precipitation 29.66 37.59  
Sea Level Pressure  
Sea Level Pressure 30.19 in    
Wind  
Wind Speed 3 mph (East)    
Max Wind Speed 30 mph    
Max Gust Speed 38 mph    
Visibility 6 miles    
Events Fog    
T = Trace of Precipitation, MM = Missing Value Source: NWS Daily Summary

Daily Weather History Graph

Daily Weather History Graph

Search for Another Location

Airport or City:

Trip Planner

Search our weather history database for the weather conditions in past years. The results will help you decide how hot, cold, wet, or windy it might be!

Date:

Astronomy

Nov. 04, 2012 Rise Set
Actual Time 6:36 AM CST 5:04 PM CST
Civil Twilight 6:09 AM CST 5:31 PM CST
Nautical Twilight 5:37 AM CST 6:02 PM CST
Astronomical Twilight 5:07 AM CST 6:33 PM CST
Moon 9:43 PM CST (11/4) 11:19 AM CST (11/4)
Length of Visible Light 11h 22m
Length of Day
10h 27m
Waning Gibbous, 72% of the Moon is Illuminated
Nov 4
Waning Gibbous
Nov 6
Last Quarter
Nov 13
New
Nov 20
First Quarter
Nov 28
Full

Hourly Weather History & Observations

Time (CST) Temp. Windchill Dew Point Humidity Pressure Visibility Wind Dir Wind Speed Gust Speed Precip Events Conditions
12:53 AM 37.0 °F 32.4 °F 34.0 °F 89% 30.19 in 6.0 mi ENE 5.8 mph - N/A   Clear
1:53 AM 35.1 °F 32.2 °F 33.1 °F 92% 30.19 in 6.0 mi ENE 3.5 mph - N/A   Clear
1:53 AM 33.1 °F - 30.0 °F 89% 30.20 in 5.0 mi Calm Calm - N/A   Clear
2:24 AM 33.8 °F - 32.0 °F 93% 30.19 in 1.5 mi Calm Calm - N/A   Clear
2:28 AM 33.8 °F - 30.2 °F 87% 30.19 in 0.5 mi Calm Calm - N/A Fog Fog
2:37 AM 33.8 °F - 30.2 °F 87% 30.18 in 0.2 mi Calm Calm - N/A Fog Fog
2:46 AM 30.2 °F - 30.2 °F 100% 30.18 in 0.2 mi Calm Calm - N/A Fog Light Freezing Fog
2:53 AM 30.0 °F - 28.9 °F 96% 30.20 in 0.2 mi Calm Calm - N/A Fog Light Freezing Fog
3:53 AM 28.9 °F - 28.0 °F 96% 30.20 in 0.2 mi Calm Calm - N/A Fog Light Freezing Fog
4:53 AM 30.0 °F - 28.9 °F 96% 30.21 in 0.2 mi Calm Calm - N/A Fog Light Freezing Fog
5:53 AM 33.1 °F - 33.1 °F 100% 30.21 in 0.2 mi Calm Calm - N/A Fog Fog
6:53 AM 33.1 °F - 32.0 °F 96% 30.23 in 0.2 mi Calm Calm - N/A Fog Fog
7:53 AM 32.0 °F 27.5 °F 30.9 °F 96% 30.25 in 0.2 mi SE 4.6 mph - N/A Fog Fog
8:53 AM 35.1 °F - 34.0 °F 96% 30.24 in 0.2 mi Calm Calm - N/A Fog Fog
9:20 AM 37.4 °F - 35.6 °F 93% 30.22 in 1.0 mi Calm Calm - N/A   Overcast
9:27 AM 37.4 °F - 35.6 °F 93% 30.22 in 3.0 mi Calm Calm - N/A   Overcast
9:42 AM 37.4 °F 34.9 °F 35.6 °F 93% 30.22 in 6.0 mi ENE 3.5 mph - N/A   Overcast
9:53 AM 39.0 °F 35.7 °F 36.0 °F 89% 30.24 in 6.0 mi ENE 4.6 mph - N/A   Overcast
10:53 AM 44.1 °F 39.5 °F 34.0 °F 68% 30.23 in 10.0 mi ENE 8.1 mph - N/A   Clear
11:53 AM 46.9 °F - 35.1 °F 63% 30.22 in 10.0 mi NE 3.5 mph - N/A   Mostly Cloudy
12:53 PM 48.0 °F - 33.1 °F 56% 30.19 in 10.0 mi North - - N/A   Partly Cloudy
1:53 PM 50.0 °F - 30.0 °F 46% 30.18 in 10.0 mi East 4.6 mph - N/A   Clear
2:01 PM 50.0 °F - 30.2 °F 47% 30.16 in 10.0 mi SSW 29.9 mph 38.0 mph N/A   Squalls
2:15 PM 51.8 °F - 26.6 °F 38% 30.16 in 10.0 mi North - - N/A   Clear
2:53 PM 50.0 °F - 30.9 °F 48% 30.17 in 10.0 mi East 3.5 mph - N/A   Clear
3:53 PM 50.0 °F - 30.9 °F 48% 30.15 in 10.0 mi East 3.5 mph - N/A   Scattered Clouds
4:53 PM 48.0 °F - 32.0 °F 54% 30.14 in 10.0 mi Calm Calm - N/A   Partly Cloudy
5:53 PM 44.1 °F 41.5 °F 30.9 °F 60% 30.14 in 10.0 mi East 4.6 mph - N/A   Mostly Cloudy
6:53 PM 44.1 °F 40.1 °F 32.0 °F 63% 30.14 in 10.0 mi East 6.9 mph - N/A   Partly Cloudy
7:53 PM 45.0 °F 41.2 °F 32.0 °F 60% 30.14 in 10.0 mi East 6.9 mph - N/A   Overcast
8:53 PM 45.0 °F 40.6 °F 32.0 °F 60% 30.14 in 10.0 mi East 8.1 mph - N/A   Overcast
9:53 PM 44.1 °F 39.5 °F 30.9 °F 60% 30.12 in 10.0 mi ESE 8.1 mph - N/A   Mostly Cloudy
10:53 PM 44.1 °F 39.0 °F 32.0 °F 63% 30.11 in 10.0 mi ESE 9.2 mph - N/A   Overcast